TimeCST,TemperatureF,Dew PointF,Humidity,Sea Level PressureIn,VisibilityMPH,Wind Direction,Wind SpeedMPH,Gust SpeedMPH,PrecipitationIn,Events,Conditions,WindDirDegrees,DateUTC
12:53 AM,32.0,28.0,85,30.17,10.0,Calm,Calm,-,N/A,,Clear,0,2012-11-08 06:53:00
1:53 AM,30.9,28.0,89,30.18,10.0,Calm,Calm,-,N/A,,Partly Cloudy,0,2012-11-08 07:53:00
2:53 AM,30.0,27.0,88,30.18,9.0,Calm,Calm,-,N/A,,Clear,0,2012-11-08 08:53:00
3:53 AM,28.9,26.1,89,30.17,9.0,ESE,5.8,-,N/A,,Clear,120,2012-11-08 09:53:00
4:53 AM,28.9,26.1,89,30.17,8.0,ESE,5.8,-,N/A,,Clear,120,2012-11-08 10:53:00
6:53 AM,28.9,26.1,89,30.16,10.0,SE,6.9,-,N/A,,Clear,130,2012-11-08 12:53:00
7:53 AM,34.0,30.0,85,30.17,10.0,ESE,5.8,-,N/A,,Clear,120,2012-11-08 13:53:00
8:53 AM,39.9,34.0,79,30.17,10.0,ESE,5.8,-,N/A,,Clear,110,2012-11-08 14:53:00
9:53 AM,50.0,35.1,57,30.15,10.0,SSE,5.8,-,N/A,,Clear,160,2012-11-08 15:53:00
10:53 AM,54.0,34.0,47,30.13,10.0,SSE,10.4,-,N/A,,Clear,150,2012-11-08 16:53:00
11:53 AM,57.0,34.0,42,30.10,10.0,South,10.4,-,N/A,,Clear,170,2012-11-08 17:53:00
12:53 PM,60.1,35.1,39,30.06,10.0,South,8.1,-,N/A,,Clear,170,2012-11-08 18:53:00
1:53 PM,62.1,35.1,37,30.02,10.0,SSE,12.7,16.1,N/A,,Clear,150,2012-11-08 19:53:00
2:53 PM,63.0,35.1,35,30.01,10.0,SE,9.2,-,N/A,,Clear,140,2012-11-08 20:53:00
3:53 PM,63.0,34.0,34,30.00,10.0,SE,11.5,-,N/A,,Clear,140,2012-11-08 21:53:00
4:53 PM,59.0,37.0,44,30.00,10.0,ESE,8.1,-,N/A,,Clear,120,2012-11-08 22:53:00
5:53 PM,55.0,36.0,49,30.00,10.0,ESE,6.9,-,N/A,,Clear,110,2012-11-08 23:53:00
6:53 PM,55.0,36.0,49,30.00,10.0,SE,8.1,-,N/A,,Clear,130,2012-11-09 00:53:00
7:53 PM,53.1,36.0,52,29.99,10.0,ESE,8.1,-,N/A,,Clear,120,2012-11-09 01:53:00
8:53 PM,52.0,36.0,54,30.00,10.0,ESE,6.9,-,N/A,,Clear,120,2012-11-09 02:53:00
9:53 PM,52.0,37.0,57,30.02,10.0,SE,3.5,-,N/A,,Clear,140,2012-11-09 03:53:00
10:53 PM,51.1,37.0,59,30.01,10.0,SE,6.9,-,N/A,,Clear,130,2012-11-09 04:53:00
11:53 PM,50.0,37.0,61,30.00,10.0,ESE,4.6,-,N/A,,Clear,120,2012-11-09 05:53:00